Flag for France Weather past 2 weeks in Périgueux, France

Now
54 °F

Clear.


Feels Like: 52 °F
Forecast: 43 / 69 °F
Wind: 6 mph from Northwest

Location: Bergerac Airport

Current Time: May 30, 2015 at 1:27:53 AM

Latest Report: May 30, 2015 at 1:00 AM


Visibility: 10 mi

Pressure: 30.09 "Hg

Humidity: 82%

Dew point: 48 °F

Location of PérigueuxLocation

Historic Weather in Périgueux — Graph

°F

Périgueux temperature yesterday

Maximum temperature yesterday: 73 °F (at 4:00 PM)
Minimum temperature yesterday: 50 °F (at 4:00 AM)
Average temperature yesterday: 62 °F

Past Weeks' High & Low Weather Summary

 TemperatureHumidityPressure
High77 °F (May 28, 3:30 PM)100% (May 16, 5:00 AM)30.42 "Hg (May 16, 5:00 AM)
Low41 °F (May 21, 6:30 AM)31% (May 27, 4:00 PM)29.89 "Hg (May 18, 6:30 PM)
Average59 °F70%30.16 "Hg
* Reported Midnight between May 14 and May 15 — Midnight between May 29 and May 30, Périgueux, Weather by CustomWeather, © 2015

Note: Actual official high and low records may vary slightly from our data, if they occured in-between our weather recording intervals... More about our weather records

Advertising

Périgueux weather history for previous 24 hours

 ConditionsComfort  
Time TempWeatherWind HumidityBarometerVisibility
12:00 AM
Sat, May 30
55 °FClear.6 mph77%30.07 "Hg10 mi
11:30 PM
Fri, May 29
55 °FClear.6 mph77%30.07 "Hg10 mi
10:30 PM61 °FSunny.9 mph63%30.04 "Hg10 mi
10:00 PM63 °FSunny.13 mph64%30.04 "Hg10 mi
9:30 PM64 °FSunny.12 mph60%30.01 "Hg10 mi
9:00 PM68 °FSunny.10 mph53%30.01 "Hg10 mi
8:30 PM70 °FSunny.12 mph46%29.98 "Hg10 mi
8:00 PM72 °FSunny.12 mph41%29.98 "Hg10 mi
7:30 PM72 °FPassing clouds.9 mph41%29.98 "HgN/A
7:00 PM72 °FSunny.12 mph44%29.98 "Hg10 mi
6:30 PM73 °FPassing clouds.12 mph41%29.98 "HgN/A
6:00 PM73 °FSunny.12 mph38%29.98 "Hg10 mi
5:30 PM72 °FPassing clouds.9 mph44%29.98 "HgN/A
5:00 PM72 °FPassing clouds.8 mph41%29.98 "HgN/A
4:30 PM72 °FPassing clouds.6 mph44%29.98 "HgN/A
4:00 PM73 °FSunny.6 mph38%30.01 "Hg10 mi
3:30 PM72 °FSunny.3 mph44%30.01 "Hg10 mi
3:00 PM72 °FPassing clouds.8 mph41%30.01 "HgN/A
2:30 PM70 °FScattered clouds.6 mph43%30.01 "HgN/A
2:00 PM68 °FPassing clouds.5 mph46%30.04 "HgN/A
1:30 PM68 °FPartly sunny.8 mph49%30.04 "HgN/A
1:00 PM70 °FScattered clouds.5 mph50%30.04 "HgN/A
12:30 PM68 °FScattered clouds.6 mph53%30.04 "HgN/A
12:00 PM66 °FPassing clouds.5 mph60%30.04 "HgN/A
11:30 AM64 °FScattered clouds.5 mph60%30.04 "Hg6 mi
11:00 AM63 °FScattered clouds.6 mph64%30.07 "Hg5 mi
10:30 AM61 °FScattered clouds.6 mph72%30.07 "Hg5 mi
10:00 AM57 °FOvercast.5 mph82%30.07 "HgN/A
9:30 AM57 °FLow clouds.7 mph88%30.07 "Hg6 mi
9:00 AM55 °FLow clouds.6 mph94%30.04 "HgN/A
8:30 AM55 °FLow clouds.6 mph88%30.04 "HgN/A
8:00 AM54 °FLow clouds.7 mph94%30.04 "HgN/A
7:30 AM54 °FLow clouds.7 mph94%30.04 "HgN/A
7:00 AM52 °FLow clouds.7 mph94%30.04 "HgN/A
6:30 AM50 °FPassing clouds.6 mph94%30.04 "HgN/A
6:00 AM50 °FClear.6 mph94%30.04 "Hg10 mi
5:30 AM50 °FClear.5 mph94%30.01 "Hg10 mi
5:00 AM50 °FClear.6 mph94%30.01 "Hg10 mi
4:30 AM50 °FClear.7 mph94%30.01 "Hg10 mi
4:00 AM50 °FClear.6 mph94%30.01 "Hg10 mi
3:30 AM52 °FClear.7 mph88%30.04 "Hg10 mi
3:00 AM52 °FClear.6 mph88%30.04 "Hg10 mi
2:30 AM54 °FClear.5 mph88%30.04 "Hg10 mi
2:00 AM54 °FClear.6 mph88%30.04 "Hg10 mi
1:30 AM54 °FClear.6 mph82%30.04 "Hg10 mi
Weather by CustomWeather, © 2015

See weather overviewHow to use our weather pages